ICESAT-2

导读 | 豆包AI

ICESat-2(冰、云和陆地高程卫星2号)由美国航空航天局(NASA)主导研发,于美国东部时间2018年9月15日发射,是一颗地球观测卫星。卫星搭载先进光子计数激光高度计ATLAS,能够高精度测量冰盖、冰川、海冰等地表高程变化,帮助科学家解析气候变化对冰冻圈的影响,同时可开展全球森林植被高度监测,为地球系统科学研究提供关键观测数据,目前卫星仍在轨运行。

Basic Information
目录编号:
43613
目录名称:
ICESAT-2
国际标识:
2018-070A
轨道中心:
EARTH
卫星名称:
ICESAT-2
卫星全名:
--
卫星状态:
在轨 (已飞行2782 天)
发射日期:
2018-09-15 UTC
国别 :
美国 (US)
星等 :
--
Orbit Information
数据来源 国际轨道数据 AOE轨道数据
星历时间 2026-04-28T20:31:27+0800
10小时前
查看轨道信息
2026-04-23T16:00:00+0800
5天前
查看轨道信息
半长轴 6859.144km 6859.052km
偏心率 0.0001891 0.0002478
轨道倾角 92.002° 92.002°
近地点辐角 67.487° 57.880°
升交点赤经 277.581° 276.183°
平近点角 292.658° 215.631°
近地点 479.709km 479.215km
远地点 482.305km 482.615km
周期 94.225分钟 94.223分钟
每日圈数 15.282624 15.282931
Detailed Information
使用方式:
暂无
2D Orbit Map
3D Orbit Map
Orbit Altitude Analysis Chart
Orbit Inclination Analysis Chart
Orbit Comprehensive Analysis Chart
View Comprehensive Chart